Location: Radomski Observatory
(40.2854°N, 79.5145°W)
Time: 22:48:59
(UTC-04:00)

Cosmos 1072 Rocket - Visible Passes

Search period start: 05 July 2015 00:00
Search period end: 15 July 2015 00:00
Orbit: 949 x 1008 km, 82.9° (Epoch: 04 July)

Date Brightness Start Highest point End Pass type
(mag) Time Alt. Az. Time Alt. Az. Time Alt. Az.
05 Jul 6.4 01:20:44 16° WSW 01:23:57 22° WNW 01:28:37 10° NNW visible
05 Jul 6.2 22:17:18 13° ESE 22:19:30 16° E 22:23:13 10° NE visible
06 Jul 4.6 00:02:01 43° SSW 00:04:17 77° W 00:10:44 10° N visible
06 Jul 6.9 01:48:53 10° W 01:51:03 11° WNW 01:52:45 10° NW visible
06 Jul 5.5 22:43:17 23° ESE 22:45:33 29° E 22:51:00 10° NNE visible
07 Jul 5.4 00:28:00 28° SW 00:30:51 42° WNW 00:36:53 10° N visible
07 Jul 4.8 23:09:14 34° SSE 23:11:44 54° E 23:17:58 10° NNE visible
08 Jul 6.3 00:53:57 15° WSW 00:57:38 24° WNW 01:02:35 10° NNW visible
08 Jul 6.3 21:50:32 10° ESE 21:53:22 14° E 21:56:34 10° NE visible
08 Jul 4.5 23:35:10 36° S 23:38:04 85° W 23:44:32 10° N visible
09 Jul 6.9 01:21:47 10° W 01:24:42 13° WNW 01:27:12 10° NW visible
09 Jul 5.6 22:16:23 18° SE 22:19:23 26° E 22:24:38 10° NNE visible
10 Jul 5.3 00:01:05 25° SW 00:04:36 47° WNW 00:10:44 10° N visible
10 Jul 4.9 22:42:15 26° SSE 22:45:33 48° E 22:51:41 10° NNE visible
11 Jul 6.2 00:26:57 14° WSW 00:31:21 26° WNW 00:36:31 10° NNW visible
11 Jul 6.3 21:25:06 10° E 21:27:13 12° E 21:29:46 10° ENE visible
11 Jul 4.5 23:08:05 27° S 23:11:52 87° E 23:18:18 10° N visible
12 Jul 6.9 00:54:53 10° W 00:58:21 14° WNW 01:01:27 10° NW visible
12 Jul 5.7 21:49:12 13° SE 21:53:14 24° E 21:58:14 10° NE visible
12 Jul 5.2 23:33:53 19° SSW 23:38:21 52° WNW 23:44:34 10° N visible
13 Jul 5.0 22:14:57 18° SSE 22:19:23 43° E 22:25:23 10° NNE visible
13 Jul 6.2 23:59:39 10° SW 00:05:03 29° WNW 00:10:26 10° NNW visible
14 Jul 4.5 22:40:40 18° S 22:45:39 80° E 22:52:04 10° N visible
